Location: Unspecified
(41.8314°N, 0.0000°E)
Time: 02:57:55
(UTC+00:00)

NOAA 16 DEB - Visible Passes

Search period start: 04 April 2026 00:00
Search period end: 14 April 2026 00:00
Orbit: 713 x 740 km, 99.0° (Epoch: 28 March)

Date Brightness Start Highest point End Pass type
(mag) Time Alt. Az. Time Alt. Az. Time Alt. Az.
4 Apr ? 05:07:19 10° ESE 05:11:10 25° ENE 05:15:03 10° NNE visible
4 Apr ? 20:26:05 10° NNW 20:29:27 19° WNW 20:32:48 10° WSW visible
5 Apr ? 19:37:06 10° N 19:41:49 51° WNW 19:46:32 10° SW visible
6 Apr ? 18:49:04 10° NNE 18:53:51 54° E 18:58:38 10° S visible
6 Apr ? 20:28:16 10° NNW 20:31:34 18° WNW 20:34:51 10° WSW visible
7 Apr ? 19:39:13 10° N 19:43:55 49° WNW 19:48:37 10° SW visible
8 Apr ? 20:30:23 10° NNW 20:33:37 18° WNW 20:36:50 10° WSW visible
9 Apr ? 19:41:16 10° N 19:45:57 48° WNW 19:50:38 10° SW visible
10 Apr ? 18:53:07 10° NNE 18:57:56 58° ESE 19:02:46 10° S visible
10 Apr ? 20:32:26 10° NNW 20:35:36 17° WNW 20:38:46 10° WSW visible
11 Apr ? 19:43:14 10° N 19:47:54 46° WNW 19:52:35 10° SW visible
12 Apr ? 20:34:25 10° NNW 20:37:32 17° WNW 20:40:38 10° W visible
13 Apr ? 04:31:15 10° ENE 04:31:48 10° ENE 04:32:21 10° NE visible
13 Apr ? 19:45:09 10° N 19:49:49 45° WNW 19:54:29 10° SW visible
